Volver al catálogo

STARLINK-6352

ActivoComunicacionesVLEO
NORAD 56782·PAYLOAD·🇺🇸 United States

Lanzado May 31, 2023 desde Vandenberg Space Force Base

Loading…

Próximos Pases (próximas 24 horas)

TLE

ActualizadoSource: CelesTrak SupGP

Época: Sep 15, 2026, 02:31 UTC

1 56782C 23078R   26258.10534722  .00683430  00000+0  45905-1 0  2580
2 56782  70.0007 206.9041 0002954 273.3894 148.5519 15.06362867    10

Sigue STARLINK-6352 en tiempo real con AllMySat

Download on the App Store